This is the latest recevied weather packets stored in our database for station/object K0JRF-13. If no packets are shown the sender has not sent any weather packets the latest 10 day(s).
| Time | Temp. | Humidity | Pressure | Rain* | Wind** | Luminosity | Snow |
|---|---|---|---|---|---|---|---|
| 1787984993 | 13.89° C | 86% | 1022.7 hPa | 0 mm | - | - | - |
| 1787984393 | 13.89° C | 86% | 1022.7 hPa | 0 mm | - | - | - |
| 1787983793 | 13.89° C | 86% | 1022.7 hPa | 0 mm | - | - | - |
| 1787983193 | 13.89° C | 85% | 1022.7 hPa | 0 mm | - | - | - |
| 1787982593 | 13.89° C | 85% | 1022.7 hPa | 0 mm | - | - | - |
| 1787981993 | 14.44° C | 84% | 1022.7 hPa | 0 mm | - | - | - |
| 1787981393 | 13.89° C | 82% | 1022.7 hPa | 0 mm | - | - | - |
| 1787980793 | 13.89° C | 85% | 1022.7 hPa | 0 mm | - | - | - |
| 1787980193 | 15° C | 85% | 1022.7 hPa | 0 mm | - | - | - |
| 1787979593 | 15° C | 84% | 1022.7 hPa | 0 mm | - | - | - |
| 1787978993 | 14.44° C | 85% | 1022.7 hPa | 0 mm | - | - | - |
| 1787978393 | 15° C | 86% | 1022.7 hPa | 0 mm | - | - | - |
| 1787977793 | 15° C | 86% | 1022.7 hPa | 0 mm | - | - | - |
| 1787977193 | 15° C | 87% | 1022.7 hPa | 0 mm | - | - | - |
| 1787976593 | 14.44° C | 87% | 1022.7 hPa | 0 mm | - | - | - |
| 1787975993 | 14.44° C | 86% | 1022.4 hPa | 0 mm | - | - | - |
| 1787975393 | 14.44° C | 88% | 1022.4 hPa | 0 mm | - | - | - |
| 1787974793 | 14.44° C | 88% | 1022.7 hPa | 0 mm | - | - | - |
| 1787974193 | 15° C | 87% | 1022.7 hPa | 0 mm | - | - | - |
| 1787973593 | 15.56° C | 87% | 1022.4 hPa | 0 mm | - | - | - |
| 1787972993 | 15.56° C | 88% | 1022.7 hPa | 0 mm | - | - | - |
| 1787972393 | 15° C | 87% | 1022.7 hPa | 0 mm | - | - | - |
| 1787971793 | 15.56° C | 87% | 1022.7 hPa | 0 mm | - | - | - |
| 1787971193 | 15.56° C | 87% | 1022.4 hPa | 0 mm | - | - | - |
| 1787970593 | 15.56° C | 87% | 1022.4 hPa | 0 mm | - | - | - |
* Rain latest hour (hover to see other rain measurements)
** Current wind speed in m/s (hover to see current wind gust speed)